FW1898 Weather Reports


Display with metric or nautical units.
time (UTC)temp
F
wind
direction
speed
MPH
gust
MPH
rain 1hr
in
rain 24hr
in
rain mn
in
humidity
%
barometer
mb
20260510173336 60 326 2.0 4.0 0.00 0.19 0.00 100 1124.0
20260510172423 60 337 4.0 6.0 0.00 0.19 0.00 100 1124.1
20260510171440 60 343 1.0 4.0 0.00 0.19 0.00 100 1124.1
20260510165539 60 352 1.0 9.0 0.00 0.19 0.00 100 1124.4
20260510163639 59 360 4.0 7.0 0.00 0.19 0.00 100 1124.3
20260510162638 58 24 5.0 7.0 0.00 0.19 0.00 100 1123.9
20260510161737 57 314 3.0 6.0 0.00 0.19 0.00 100 1124.1
20260510160836 58 17 8.0 12.0 0.00 0.19 0.00 100 1124.0
20260510155921 58 34 7.0 11.0 0.00 0.19 0.00 100 1124.1
20260510154938 57 358 2.0 6.0 0.00 0.19 0.00 100 1123.9
20260510153939 56 18 5.0 7.0 0.00 0.19 0.00 100 1123.8
20260510153037 56 30 6.0 9.0 0.00 0.19 0.00 100 1123.6
20260510152122 55 7 5.0 7.0 0.00 0.19 0.00 100 1123.6
20260510151137 55 31 7.0 11.0 0.00 0.19 0.00 100 1123.4
20260510150139 55 337 5.0 8.0 0.00 0.19 0.00 100 1123.4
20260510145138 54 21 6.0 7.0 0.00 0.19 0.00 100 1123.3
20260510144237 53 19 9.0 12.0 0.00 0.19 0.00 100 1122.9
20260510142221 52 26 10.0 13.0 0.00 0.19 0.00 100 1122.6
20260510141238 53 24 7.0 11.0 0.00 0.19 0.00 100 1122.6
20260510140337 53 343 6.0 11.0 0.00 0.19 0.00 100 1122.6
20260510134437 51 20 8.0 13.0 0.00 0.19 0.00 100 1122.6
20260510133438 51 15 4.0 8.0 0.00 0.19 0.00 100 1122.3
20260510132537 50 24 6.0 9.0 0.00 0.20 0.00 100 1122.3
20260510131536 49 353 6.0 8.0 0.00 0.20 0.00 100 1122.1
20260510125636 49 14 5.0 7.0 0.00 0.20 0.00 100 1121.8
20260510124641 48 5 5.0 7.0 0.00 0.20 0.00 100 1121.5
20260510123639 48 3 8.0 13.0 0.00 0.20 0.00 100 1121.2
20260510122639 47 21 5.0 6.0 0.00 0.20 0.00 100 1120.9
20260510121638 47 359 5.0 8.0 0.00 0.20 0.00 100 1120.7
20260510120721 47 340 5.0 9.0 0.00 0.20 0.00 100 1120.6
20260510115736 47 338 5.0 6.0 0.00 0.20 0.00 100 1120.2
20260510114738 47 358 5.0 9.0 0.00 0.20 0.00 100 1120.2
20260510112738 47 337 2.0 5.0 0.00 0.20 0.00 100 1120.0
20260510111738 47 352 4.0 7.0 0.00 0.20 0.00 100 1119.4
20260510110820 47 341 4.0 5.0 0.00 0.20 0.00 100 1119.1
20260510110737 47 337 2.0 4.0 0.00 0.20 0.00 100 1119.1
20260510105736 47 337 2.0 5.0 0.00 0.20 0.00 100 1119.1
20260510104737 46 360 0.0 0.0 0.00 0.20 0.00 100 1118.9
20260510103837 46 360 2.0 4.0 0.00 0.20 0.00 100 1118.6
20260510102936 46 337 0.0 2.0 0.00 0.20 0.00 100 1118.4
20260510101937 46 337 0.0 0.0 0.00 0.20 0.00 100 1118.4
20260510100936 46 337 0.0 0.0 0.00 0.20 0.00 100 1117.9
20260510095937 46 5 2.0 3.0 0.00 0.20 0.00 100 1117.6
20260510094936 45 22 3.0 4.0 0.00 0.20 0.00 100 1117.5
20260510093940 45 344 1.0 2.0 0.00 0.20 0.00 100 1117.6
20260510093038 45 340 1.0 2.0 0.00 0.20 0.00 100 1117.5
20260510092137 45 294 1.0 3.0 0.00 0.20 0.00 100 1117.5
20260510091138 45 337 0.0 1.0 0.00 0.20 0.00 100 1117.5
20260510090237 46 337 0.0 1.0 0.00 0.20 0.00 100 1117.3
20260510085238 46 360 0.0 0.0 0.00 0.20 0.00 100 1117.2
20260510084238 46 337 0.0 1.0 0.00 0.20 0.00 100 1116.9
20260510083238 47 337 1.0 2.0 0.00 0.20 0.00 100 1116.8
20260510082337 47 337 3.0 4.0 0.00 0.20 0.00 100 1116.6
20260510081336 48 2 3.0 7.0 0.00 0.20 0.00 100 1116.5
20260510075340 48 18 4.0 6.0 0.00 0.20 0.00 100 1116.3
20260510074437 49 13 6.0 10.0 0.00 0.20 0.00 100 1116.2
20260510073436 49 354 5.0 9.0 0.00 0.20 0.00 100 1116.3
20260510072436 49 9 8.0 11.0 0.00 0.20 0.00 100 1116.2
20260510071439 50 3 5.0 10.0 0.00 0.20 0.00 100 1116.0
20260510070437 51 346 5.0 9.0 0.00 0.20 0.00 100 1115.9
20260510065436 52 354 7.0 10.0 0.00 0.20 0.00 100 1115.7
20260510064436 53 326 7.0 13.0 0.00 0.20 0.00 100 1115.6
20260510063437 54 303 4.0 7.0 0.00 0.21 0.00 100 1115.4
20260510062522 55 302 6.0 8.0 0.00 0.23 0.00 100 1115.4
20260510061538 55 285 4.0 10.0 0.00 0.25 0.00 100 1115.1
20260510060621 55 286 5.0 7.0 0.00 0.25 0.00 100 1114.9
20260510055636 56 286 6.0 9.0 0.00 0.25 0.00 100 1114.8
20260510053719 56 271 6.0 11.0 0.00 0.25 0.00 100 1114.6
20260510052738 56 276 3.0 4.0 0.00 0.26 0.00 100 1114.5
20260510051738 55 241 4.0 8.0 0.00 0.28 0.00 100 1114.5
20260510050736 55 222 3.0 4.0 0.00 0.30 0.00 100 1114.2
20260510045738 56 224 3.0 4.0 0.00 0.33 0.00 100 1114.1
20260510044737 56 216 4.0 5.0 0.00 0.37 0.00 100 1114.1
20260510043836 55 209 4.0 5.0 0.00 0.37 0.00 100 1113.8
20260510042922 54 204 3.0 6.0 0.00 0.37 0.00 100 1114.0
20260510041937 53 201 5.0 8.0 0.00 0.38 0.00 100 1113.8
20260510040938 53 157 1.0 2.0 0.00 0.38 0.00 100 1113.6
20260510040036 53 157 2.0 4.0 0.00 0.39 0.00 100 1113.5
20260510035035 53 157 3.0 5.0 0.00 0.39 0.39 100 1113.5
20260510034133 53 149 3.0 4.0 0.00 0.42 0.39 100 1113.4
20260510031134 54 135 3.0 4.0 0.01 0.46 0.39 100 1113.3
20260510030134 54 157 0.0 1.0 0.01 0.46 0.39 100 1113.4
20260510025232 54 157 2.0 3.0 0.01 0.46 0.39 100 1113.5
20260510024233 54 157 1.0 2.0 0.02 0.46 0.39 100 1113.5
20260510023235 55 247 0.0 1.0 0.03 0.45 0.38 100 1114.0
20260510022334 55 225 1.0 2.0 0.03 0.46 0.38 100 1113.6
20260510021334 55 247 0.0 0.0 0.03 0.46 0.38 100 1113.2
20260510020333 55 247 2.0 3.0 0.03 0.46 0.38 100 1113.3
20260510015334 55 256 4.0 8.0 0.03 0.46 0.38 100 1112.8
20260510014433 54 247 2.0 7.0 0.02 0.45 0.37 100 1113.2
20260510013434 54 135 0.0 0.0 0.00 0.44 0.35 100 1112.6
20260510012533 54 135 0.0 0.0 0.00 0.44 0.35 100 1112.4
20260510011536 54 157 0.0 0.0 0.00 0.44 0.35 100 1112.3
20260510004634 55 175 1.0 2.0 0.01 0.45 0.35 100 1112.0
20260510000916 55 261 2.0 5.0 0.15 0.46 0.35 100 1112.0
20260509235933 55 290 5.0 8.0 0.15 0.46 0.35 100 1112.6
20260509234933 55 288 6.0 10.0 0.14 0.46 0.34 100 1112.2
20260509234834 55 295 6.0 10.0 0.14 0.46 0.34 100 1112.2
20260509233834 55 294 6.0 11.0 0.14 0.46 0.34 100 1112.3
20260509232833 58 290 12.0 19.0 0.11 0.43 0.30 100 1112.6
20260509231835 64 291 11.0 18.0 0.00 0.33 0.20 100 1111.8
20260509230933 65 250 5.0 9.0 0.00 0.34 0.20 100 1110.4
20260509225032 67 221 10.0 17.0 0.00 0.36 0.20 100 1110.2
20260509224033 68 226 8.0 12.0 0.00 0.37 0.20 100 1110.0
20260509223034 68 219 8.0 12.0 0.00 0.38 0.20 100 1110.0
20260509222934 68 217 7.0 11.0 0.00 0.39 0.20 100 1110.0
20260509221935 68 220 13.0 20.0 0.00 0.42 0.20 100 1110.0
20260509221034 69 220 13.0 21.0 0.00 0.43 0.20 100 1109.9
20260509220037 70 209 8.0 14.0 0.00 0.44 0.20 100 1109.8
20260509215133 70 228 7.0 13.0 0.00 0.44 0.20 100 1110.0
20260509214231 70 223 7.0 12.0 0.00 0.44 0.20 100 1109.7
20260509211332 70 206 11.0 18.0 0.00 0.44 0.20 100 1109.7
20260509210332 70 216 12.0 17.0 0.00 0.44 0.20 100 1110.0
20260509205333 70 186 6.0 11.0 0.00 0.44 0.20 100 1110.2
20260509204334 70 217 12.0 18.0 0.00 0.44 0.20 100 1110.3
20260509203433 70 184 2.0 6.0 0.00 0.44 0.20 100 1110.5
20260509202433 69 210 6.0 12.0 0.00 0.44 0.20 100 1110.6
20260509201532 69 196 8.0 17.0 0.00 0.44 0.20 100 1110.9
20260509200533 68 222 9.0 15.0 0.00 0.44 0.20 100 1111.0
20260509194731 68 218 8.0 14.0 0.00 0.44 0.20 100 1111.4
20260509193735 68 196 9.0 18.0 0.00 0.44 0.20 100 1111.3
20260509192735 69 216 8.0 11.0 0.00 0.44 0.20 100 1111.4
20260509191733 68 222 5.0 8.0 0.00 0.44 0.20 100 1111.5
20260509190733 68 216 6.0 16.0 0.00 0.44 0.20 100 1111.5
20260509185816 68 227 4.0 7.0 0.00 0.44 0.20 100 1111.6
20260509184733 67 228 6.0 9.0 0.00 0.44 0.20 100 1111.7
20260509183833 66 208 5.0 9.0 0.00 0.44 0.20 100 1111.9
20260509182832 65 220 6.0 9.0 0.00 0.44 0.20 100 1112.0
20260509181833 65 210 8.0 14.0 0.00 0.44 0.20 100 1111.9
20260509180835 65 215 6.0 11.0 0.00 0.45 0.20 100 1111.9
20260509175932 65 204 7.0 10.0 0.00 0.46 0.20 100 1112.0
20260509175016 64 215 6.0 12.0 0.00 0.47 0.20 100 1112.3